KUIPER-00028

Last updated on Thu May 29 2025 00:02:04 GMT+0000 (Coordinated Universal Time)

1 63741U 25088T 25148.48564662 .00013873 00000+0 38990-3 0 9998 2 63741 51.8710 315.2809 0001860 206.6962 153.3929 15.36788091 5251
UTC large
Height (km)
Speed (km/s)
/
Latitude / Longitude
Inclination (degrees)
Orbital Period (minutes)
Azimuth
Elevation
Range (km)
Doppler Factor

Next 0 passes for location: London (51.5072 / 0.1276)

Sorry there are no passes over London.